owner,sensor,date,latitude,longitude,vertical_datum,sea_water_practical_salinity,qcFlag 
DISL,ioos:station:DISL:KATA:1,2013-07-01T00:00:00Z,30.2583,-88.2131,4.112,22.87,1111122 
DISL,ioos:station:DISL:KATA:1,2013-07-01T00:30:00Z,30.2583,-88.2131,4.112,22.87,1111122 
DISL,ioos:station:DISL:KATA:1,2013-07-01T01:00:00Z,30.2583,-88.2131,4.112,22.87,1111122 
DISL,ioos:station:DISL:KATA:1,2013-07-01T01:30:00Z,30.2583,-88.2131,4.112,22.87,1111122 
DISL,ioos:station:DISL:KATA:1,2013-07-01T02:00:00Z,30.2583,-88.2131,4.112,22.87,1111122 
DISL,ioos:station:DISL:KATA:1,2013-07-01T02:30:00Z,30.2583,-88.2131,4.112,22.87,1111122 
DISL,ioos:station:DISL:KATA:1,2013-07-01T03:00:00Z,30.2583,-88.2131,4.112,22.87,1111122 
DISL,ioos:station:DISL:KATA:1,2013-07-01T03:30:00Z,30.2583,-88.2131,4.112,22.87,1111122 
DISL,ioos:station:DISL:KATA:1,2013-07-01T04:00:00Z,30.2583,-88.2131,4.112,22.87,1111122 
DISL,ioos:station:DISL:KATA:1,2013-07-01T04:30:00Z,30.2583,-88.2131,4.112,22.87,1111122 
DISL,ioos:station:DISL:KATA:1,2013-07-01T05:00:00Z,30.2583,-88.2131,4.112,22.87,1111122 
DISL,ioos:station:DISL:KATA:1,2013-07-01T05:30:00Z,30.2583,-88.2131,4.112,22.87,1111122 
DISL,ioos:station:DISL:KATA:1,2013-07-01T06:00:00Z,30.2583,-88.2131,4.112,22.87,1111122 
DISL,ioos:station:DISL:KATA:1,2013-07-01T06:30:00Z,30.2583,-88.2131,4.112,22.87,1111122 
DISL,ioos:station:DISL:KATA:1,2013-07-01T07:00:00Z,30.2583,-88.2131,4.112,22.87,1111122 
DISL,ioos:station:DISL:KATA:1,2013-07-01T07:30:00Z,30.2583,-88.2131,4.112,22.87,1111122 
DISL,ioos:station:DISL:KATA:1,2013-07-01T08:00:00Z,30.2583,-88.2131,4.112,22.87,1111122 
DISL,ioos:station:DISL:KATA:1,2013-07-01T08:30:00Z,30.2583,-88.2131,4.112,22.87,1111122 
DISL,ioos:station:DISL:KATA:1,2013-07-01T09:00:00Z,30.2583,-88.2131,4.112,22.87,1111122 
DISL,ioos:station:DISL:KATA:1,2013-07-01T09:30:00Z,30.2583,-88.2131,4.112,22.87,1111122 
DISL,ioos:station:DISL:KATA:1,2013-07-01T10:00:00Z,30.2583,-88.2131,4.112,22.87,1111122 
DISL,ioos:station:DISL:KATA:1,2013-07-01T10:30:00Z,30.2583,-88.2131,4.112,22.87,1111122 
DISL,ioos:station:DISL:KATA:1,2013-07-01T11:00:00Z,30.2583,-88.2131,4.112,22.87,1111122 
DISL,ioos:station:DISL:KATA:1,2013-07-01T11:30:00Z,30.2583,-88.2131,4.112,22.87,1111122 
DISL,ioos:station:DISL:KATA:1,2013-07-01T12:00:00Z,30.2583,-88.2131,4.112,22.87,1111122 
DISL,ioos:station:DISL:KATA:1,2013-07-01T12:30:00Z,30.2583,-88.2131,4.112,22.87,1111122 
DISL,ioos:station:DISL:KATA:1,2013-07-01T13:00:00Z,30.2583,-88.2131,4.112,22.87,1111122 
DISL,ioos:station:DISL:KATA:1,2013-07-01T13:30:00Z,30.2583,-88.2131,4.112,22.87,1111122 
DISL,ioos:station:DISL:KATA:1,2013-07-01T14:00:00Z,30.2583,-88.2131,4.112,22.87,1111122 
DISL,ioos:station:DISL:KATA:1,2013-07-01T14:30:00Z,30.2583,-88.2131,4.112,22.87,1111122 
DISL,ioos:station:DISL:KATA:1,2013-07-01T15:00:00Z,30.2583,-88.2131,4.112,22.87,1111122 
DISL,ioos:station:DISL:KATA:1,2013-07-01T15:30:00Z,30.2583,-88.2131,4.112,22.87,1111122 
DISL,ioos:station:DISL:KATA:1,2013-07-01T16:00:00Z,30.2583,-88.2131,4.112,22.87,1111122 
DISL,ioos:station:DISL:KATA:1,2013-07-01T16:30:00Z,30.2583,-88.2131,4.112,22.87,1111122 
DISL,ioos:station:DISL:KATA:1,2013-07-01T17:00:00Z,30.2583,-88.2131,4.112,22.87,1111122 
DISL,ioos:station:DISL:KATA:1,2013-07-01T17:30:00Z,30.2583,-88.2131,4.112,22.87,1111122 
DISL,ioos:station:DISL:KATA:1,2013-07-01T18:00:00Z,30.2583,-88.2131,4.112,22.87,1111122 
DISL,ioos:station:DISL:KATA:1,2013-07-01T18:30:00Z,30.2583,-88.2131,4.112,22.87,1111122 
DISL,ioos:station:DISL:KATA:1,2013-07-01T19:00:00Z,30.2583,-88.2131,4.112,22.87,1111122 
DISL,ioos:station:DISL:KATA:1,2013-07-01T19:30:00Z,30.2583,-88.2131,3.975,23.02,1111122 
DISL,ioos:station:DISL:KATA:1,2013-07-01T20:00:00Z,30.2583,-88.2131,3.965,22.95,1111122 
DISL,ioos:station:DISL:KATA:1,2013-07-01T20:30:00Z,30.2583,-88.2131,3.955,22.92,1111122 
DISL,ioos:station:DISL:KATA:1,2013-07-01T21:00:00Z,30.2583,-88.2131,3.954,22.92,1111122 
DISL,ioos:station:DISL:KATA:1,2013-07-01T21:30:00Z,30.2583,-88.2131,3.941,22.93,1111122 
DISL,ioos:station:DISL:KATA:1,2013-07-01T22:00:00Z,30.2583,-88.2131,3.936,23.0,1111122 
DISL,ioos:station:DISL:KATA:1,2013-07-01T22:30:00Z,30.2583,-88.2131,3.932,22.96,1111122 
DISL,ioos:station:DISL:KATA:1,2013-07-01T23:00:00Z,30.2583,-88.2131,3.923,23.06,1111122 
DISL,ioos:station:DISL:KATA:1,2013-07-01T23:30:00Z,30.2583,-88.2131,3.932,23.08,1111122 
DISL,ioos:station:DISL:KATA:1,2013-07-02T00:00:00Z,30.2583,-88.2131,3.945,23.05,1111122 
DISL,ioos:station:DISL:KATA:1,2013-07-02T00:30:00Z,30.2583,-88.2131,3.951,23.07,1111122 
DISL,ioos:station:DISL:KATA:1,2013-07-02T01:00:00Z,30.2583,-88.2131,3.962,23.09,1111122 
DISL,ioos:station:DISL:KATA:1,2013-07-02T01:30:00Z,30.2583,-88.2131,3.968,23.05,1111122 
DISL,ioos:station:DISL:KATA:1,2013-07-02T02:00:00Z,30.2583,-88.2131,3.966,23.05,1111122 
DISL,ioos:station:DISL:KATA:1,2013-07-02T02:30:00Z,30.2583,-88.2131,3.968,23.02,1111122 
DISL,ioos:station:DISL:KATA:1,2013-07-02T03:00:00Z,30.2583,-88.2131,3.981,22.91,1111122 
DISL,ioos:station:DISL:KATA:1,2013-07-02T03:30:00Z,30.2583,-88.2131,4.003,22.85,1111122 
DISL,ioos:station:DISL:KATA:1,2013-07-02T04:00:00Z,30.2583,-88.2131,4.024,22.89,1111122 
DISL,ioos:station:DISL:KATA:1,2013-07-02T04:30:00Z,30.2583,-88.2131,4.054,22.86,1111122 
DISL,ioos:station:DISL:KATA:1,2013-07-02T05:00:00Z,30.2583,-88.2131,4.074,22.86,1111122 
DISL,ioos:station:DISL:KATA:1,2013-07-02T05:30:00Z,30.2583,-88.2131,4.087,22.73,1111122 
DISL,ioos:station:DISL:KATA:1,2013-07-02T06:00:00Z,30.2583,-88.2131,4.096,22.45,1111122 
DISL,ioos:station:DISL:KATA:1,2013-07-02T06:30:00Z,30.2583,-88.2131,4.107,22.25,1111122 
DISL,ioos:station:DISL:KATA:1,2013-07-02T07:00:00Z,30.2583,-88.2131,4.129,22.24,1111122 
DISL,ioos:station:DISL:KATA:1,2013-07-02T07:30:00Z,30.2583,-88.2131,4.155,22.11,1111122 
DISL,ioos:station:DISL:KATA:1,2013-07-02T08:00:00Z,30.2583,-88.2131,4.179,22.03,1111122 
DISL,ioos:station:DISL:KATA:1,2013-07-02T08:30:00Z,30.2583,-88.2131,4.197,22.08,1111122 
DISL,ioos:station:DISL:KATA:1,2013-07-02T09:00:00Z,30.2583,-88.2131,4.218,22.14,1111122 
DISL,ioos:station:DISL:KATA:1,2013-07-02T09:30:00Z,30.2583,-88.2131,4.235,22.27,1111122 
DISL,ioos:station:DISL:KATA:1,2013-07-02T10:00:00Z,30.2583,-88.2131,4.252,22.39,1111122 
DISL,ioos:station:DISL:KATA:1,2013-07-02T10:30:00Z,30.2583,-88.2131,4.253,22.48,1111122 
DISL,ioos:station:DISL:KATA:1,2013-07-02T11:00:00Z,30.2583,-88.2131,4.243,22.52,1111122 
DISL,ioos:station:DISL:KATA:1,2013-07-02T11:30:00Z,30.2583,-88.2131,4.232,22.51,1111122 
DISL,ioos:station:DISL:KATA:1,2013-07-02T12:00:00Z,30.2583,-88.2131,4.224,22.56,1111122 
DISL,ioos:station:DISL:KATA:1,2013-07-02T12:30:00Z,30.2583,-88.2131,4.228,22.59,1111122 
DISL,ioos:station:DISL:KATA:1,2013-07-02T13:00:00Z,30.2583,-88.2131,4.229,22.62,1111122 
DISL,ioos:station:DISL:KATA:1,2013-07-02T13:30:00Z,30.2583,-88.2131,4.202,22.62,1111122 
DISL,ioos:station:DISL:KATA:1,2013-07-02T14:00:00Z,30.2583,-88.2131,4.185,22.27,1111122 
DISL,ioos:station:DISL:KATA:1,2013-07-02T14:30:00Z,30.2583,-88.2131,4.175,22.56,1111122 
DISL,ioos:station:DISL:KATA:1,2013-07-02T15:00:00Z,30.2583,-88.2131,4.162,22.65,1111122 
DISL,ioos:station:DISL:KATA:1,2013-07-02T15:30:00Z,30.2583,-88.2131,4.126,22.63,1111122 
DISL,ioos:station:DISL:KATA:1,2013-07-02T16:00:00Z,30.2583,-88.2131,4.091,22.2,1111122 
DISL,ioos:station:DISL:KATA:1,2013-07-02T16:30:00Z,30.2583,-88.2131,4.061,21.89,1111122 
DISL,ioos:station:DISL:KATA:1,2013-07-02T17:00:00Z,30.2583,-88.2131,4.024,22.15,1111122 
DISL,ioos:station:DISL:KATA:1,2013-07-02T17:30:00Z,30.2583,-88.2131,3.988,22.3,1111122 
DISL,ioos:station:DISL:KATA:1,2013-07-02T18:00:00Z,30.2583,-88.2131,3.95,22.08,1111122 
DISL,ioos:station:DISL:KATA:1,2013-07-02T18:30:00Z,30.2583,-88.2131,3.914,22.0,1111122 
DISL,ioos:station:DISL:KATA:1,2013-07-02T19:00:00Z,30.2583,-88.2131,3.89,21.99,1111122 
DISL,ioos:station:DISL:KATA:1,2013-07-02T19:30:00Z,30.2583,-88.2131,3.878,22.37,1111122 
DISL,ioos:station:DISL:KATA:1,2013-07-02T20:00:00Z,30.2583,-88.2131,3.864,22.52,1111122 
DISL,ioos:station:DISL:KATA:1,2013-07-02T20:30:00Z,30.2583,-88.2131,3.859,22.49,1111122 
DISL,ioos:station:DISL:KATA:1,2013-07-02T21:00:00Z,30.2583,-88.2131,3.859,22.38,1111122 
DISL,ioos:station:DISL:KATA:1,2013-07-02T21:30:00Z,30.2583,-88.2131,3.856,22.29,1111122 
DISL,ioos:station:DISL:KATA:1,2013-07-02T22:00:00Z,30.2583,-88.2131,3.864,22.28,1111122 
DISL,ioos:station:DISL:KATA:1,2013-07-02T22:30:00Z,30.2583,-88.2131,3.86,22.35,1111122 
DISL,ioos:station:DISL:KATA:1,2013-07-02T23:00:00Z,30.2583,-88.2131,3.861,22.47,1111122 
DISL,ioos:station:DISL:KATA:1,2013-07-02T23:30:00Z,30.2583,-88.2131,3.852,22.58,1111122 
DISL,ioos:station:DISL:KATA:1,2013-07-03T00:00:00Z,30.2583,-88.2131,3.853,22.62,1111122 
DISL,ioos:station:DISL:KATA:1,2013-07-03T00:30:00Z,30.2583,-88.2131,3.865,22.55,1111122 
DISL,ioos:station:DISL:KATA:1,2013-07-03T01:00:00Z,30.2583,-88.2131,3.872,22.52,1111122 
DISL,ioos:station:DISL:KATA:1,2013-07-03T01:30:00Z,30.2583,-88.2131,3.905,22.5,1111122 
DISL,ioos:station:DISL:KATA:1,2013-07-03T02:00:00Z,30.2583,-88.2131,3.924,22.48,1111122 
DISL,ioos:station:DISL:KATA:1,2013-07-03T02:30:00Z,30.2583,-88.2131,3.931,22.49,1111122 
DISL,ioos:station:DISL:KATA:1,2013-07-03T03:00:00Z,30.2583,-88.2131,3.956,22.47,1111122 
DISL,ioos:station:DISL:KATA:1,2013-07-03T03:30:00Z,30.2583,-88.2131,3.982,22.52,1111122 
DISL,ioos:station:DISL:KATA:1,2013-07-03T04:00:00Z,30.2583,-88.2131,4.003,22.53,1111122 
DISL,ioos:station:DISL:KATA:1,2013-07-03T04:30:00Z,30.2583,-88.2131,4.027,22.5,1111122 
DISL,ioos:station:DISL:KATA:1,2013-07-03T05:00:00Z,30.2583,-88.2131,4.057,22.48,1111122 
DISL,ioos:station:DISL:KATA:1,2013-07-03T05:30:00Z,30.2583,-88.2131,4.068,22.49,1111122 
DISL,ioos:station:DISL:KATA:1,2013-07-03T06:00:00Z,30.2583,-88.2131,4.095,22.49,1111122 
DISL,ioos:station:DISL:KATA:1,2013-07-03T06:30:00Z,30.2583,-88.2131,4.106,22.55,1111122 
DISL,ioos:station:DISL:KATA:1,2013-07-03T07:00:00Z,30.2583,-88.2131,4.116,22.58,1111122 
DISL,ioos:station:DISL:KATA:1,2013-07-03T07:30:00Z,30.2583,-88.2131,4.148,22.63,1111122 
DISL,ioos:station:DISL:KATA:1,2013-07-03T08:00:00Z,30.2583,-88.2131,4.18,22.9,1111122 
DISL,ioos:station:DISL:KATA:1,2013-07-03T08:30:00Z,30.2583,-88.2131,4.233,23.68,1111122 
DISL,ioos:station:DISL:KATA:1,2013-07-03T09:00:00Z,30.2583,-88.2131,4.23,24.47,1111122 
DISL,ioos:station:DISL:KATA:1,2013-07-03T09:30:00Z,30.2583,-88.2131,4.241,25.18,1111122 
DISL,ioos:station:DISL:KATA:1,2013-07-03T10:00:00Z,30.2583,-88.2131,4.244,25.9,1111122 
DISL,ioos:station:DISL:KATA:1,2013-07-03T10:30:00Z,30.2583,-88.2131,4.265,24.95,1111122 
DISL,ioos:station:DISL:KATA:1,2013-07-03T11:00:00Z,30.2583,-88.2131,4.294,24.94,1111122 
DISL,ioos:station:DISL:KATA:1,2013-07-03T11:30:00Z,30.2583,-88.2131,4.315,25.69,1111122 
DISL,ioos:station:DISL:KATA:1,2013-07-03T12:00:00Z,30.2583,-88.2131,4.326,25.41,1111122 
DISL,ioos:station:DISL:KATA:1,2013-07-03T12:30:00Z,30.2583,-88.2131,4.319,26.31,1111122 
DISL,ioos:station:DISL:KATA:1,2013-07-03T13:00:00Z,30.2583,-88.2131,4.309,26.96,1111122 
DISL,ioos:station:DISL:KATA:1,2013-07-03T13:30:00Z,30.2583,-88.2131,4.293,26.18,1111122 
DISL,ioos:station:DISL:KATA:1,2013-07-03T14:00:00Z,30.2583,-88.2131,4.282,26.39,1111122 
DISL,ioos:station:DISL:KATA:1,2013-07-03T14:30:00Z,30.2583,-88.2131,4.255,26.65,1111122 
DISL,ioos:station:DISL:KATA:1,2013-07-03T15:00:00Z,30.2583,-88.2131,4.204,26.96,1111122 
DISL,ioos:station:DISL:KATA:1,2013-07-03T15:30:00Z,30.2583,-88.2131,4.185,27.51,1111122 
DISL,ioos:station:DISL:KATA:1,2013-07-03T16:00:00Z,30.2583,-88.2131,4.163,28.31,1111122 
DISL,ioos:station:DISL:KATA:1,2013-07-03T16:30:00Z,30.2583,-88.2131,4.129,27.09,1111122 
DISL,ioos:station:DISL:KATA:1,2013-07-03T17:00:00Z,30.2583,-88.2131,4.09,27.14,1111122 
DISL,ioos:station:DISL:KATA:1,2013-07-03T17:30:00Z,30.2583,-88.2131,4.043,28.91,1111122 
DISL,ioos:station:DISL:KATA:1,2013-07-03T18:00:00Z,30.2583,-88.2131,4.002,29.23,1111122 
DISL,ioos:station:DISL:KATA:1,2013-07-03T18:30:00Z,30.2583,-88.2131,3.981,28.39,1111122 
DISL,ioos:station:DISL:KATA:1,2013-07-03T19:00:00Z,30.2583,-88.2131,3.951,27.65,1111122 
DISL,ioos:station:DISL:KATA:1,2013-07-03T19:30:00Z,30.2583,-88.2131,3.943,27.9,1111122 
DISL,ioos:station:DISL:KATA:1,2013-07-03T20:00:00Z,30.2583,-88.2131,3.911,28.8,1111122 
DISL,ioos:station:DISL:KATA:1,2013-07-03T20:30:00Z,30.2583,-88.2131,3.897,28.94,1111122 
DISL,ioos:station:DISL:KATA:1,2013-07-03T21:00:00Z,30.2583,-88.2131,3.887,29.11,1111122 
DISL,ioos:station:DISL:KATA:1,2013-07-03T21:30:00Z,30.2583,-88.2131,3.88,29.6,1111122 
DISL,ioos:station:DISL:KATA:1,2013-07-03T22:00:00Z,30.2583,-88.2131,3.885,29.65,1111122 
DISL,ioos:station:DISL:KATA:1,2013-07-03T22:30:00Z,30.2583,-88.2131,3.879,30.1,1111122 
DISL,ioos:station:DISL:KATA:1,2013-07-03T23:00:00Z,30.2583,-88.2131,3.889,30.92,1111122 
DISL,ioos:station:DISL:KATA:1,2013-07-03T23:30:00Z,30.2583,-88.2131,3.903,29.76,1111122 
DISL,ioos:station:DISL:KATA:1,2013-07-04T00:00:00Z,30.2583,-88.2131,3.91,30.65,1111122 
DISL,ioos:station:DISL:KATA:1,2013-07-04T00:30:00Z,30.2583,-88.2131,3.912,30.36,1111122 
DISL,ioos:station:DISL:KATA:1,2013-07-04T01:00:00Z,30.2583,-88.2131,3.926,29.76,1111122 
DISL,ioos:station:DISL:KATA:1,2013-07-04T01:30:00Z,30.2583,-88.2131,3.932,30.05,1111122 
DISL,ioos:station:DISL:KATA:1,2013-07-04T02:00:00Z,30.2583,-88.2131,3.948,30.1,1111122 
DISL,ioos:station:DISL:KATA:1,2013-07-04T02:30:00Z,30.2583,-88.2131,3.968,31.12,1111122 
DISL,ioos:station:DISL:KATA:1,2013-07-04T03:00:00Z,30.2583,-88.2131,3.995,30.05,1111122 
DISL,ioos:station:DISL:KATA:1,2013-07-04T03:30:00Z,30.2583,-88.2131,4.011,30.1,1111122 
DISL,ioos:station:DISL:KATA:1,2013-07-04T04:00:00Z,30.2583,-88.2131,4.045,30.15,1111122 
DISL,ioos:station:DISL:KATA:1,2013-07-04T04:30:00Z,30.2583,-88.2131,4.08,30.2,1111122 
DISL,ioos:station:DISL:KATA:1,2013-07-04T05:00:00Z,30.2583,-88.2131,4.09,30.3,1111122 
DISL,ioos:station:DISL:KATA:1,2013-07-04T05:30:00Z,30.2583,-88.2131,4.102,30.11,1111122 
DISL,ioos:station:DISL:KATA:1,2013-07-04T06:00:00Z,30.2583,-88.2131,4.117,30.18,1111122 
DISL,ioos:station:DISL:KATA:1,2013-07-04T06:30:00Z,30.2583,-88.2131,4.122,30.28,1111122 
DISL,ioos:station:DISL:KATA:1,2013-07-04T07:00:00Z,30.2583,-88.2131,4.119,30.35,1111122 
DISL,ioos:station:DISL:KATA:1,2013-07-04T07:30:00Z,30.2583,-88.2131,4.15,30.55,1111122 
DISL,ioos:station:DISL:KATA:1,2013-07-04T08:00:00Z,30.2583,-88.2131,4.192,30.39,1111122 
DISL,ioos:station:DISL:KATA:1,2013-07-04T08:30:00Z,30.2583,-88.2131,4.222,30.41,1111122 
DISL,ioos:station:DISL:KATA:1,2013-07-04T09:00:00Z,30.2583,-88.2131,4.262,29.66,1111122 
DISL,ioos:station:DISL:KATA:1,2013-07-04T09:30:00Z,30.2583,-88.2131,4.279,29.72,1111122 
DISL,ioos:station:DISL:KATA:1,2013-07-04T10:00:00Z,30.2583,-88.2131,4.296,30.05,1111122 
DISL,ioos:station:DISL:KATA:1,2013-07-04T10:30:00Z,30.2583,-88.2131,4.331,30.48,1111122 
DISL,ioos:station:DISL:KATA:1,2013-07-04T11:00:00Z,30.2583,-88.2131,4.367,30.69,1111122 
DISL,ioos:station:DISL:KATA:1,2013-07-04T11:30:00Z,30.2583,-88.2131,4.399,31.35,1111122 
DISL,ioos:station:DISL:KATA:1,2013-07-04T12:00:00Z,30.2583,-88.2131,4.4,31.12,1111122 
DISL,ioos:station:DISL:KATA:1,2013-07-04T12:30:00Z,30.2583,-88.2131,4.404,31.26,1111122 
DISL,ioos:station:DISL:KATA:1,2013-07-04T13:00:00Z,30.2583,-88.2131,4.391,30.05,1111122 
DISL,ioos:station:DISL:KATA:1,2013-07-04T13:30:00Z,30.2583,-88.2131,4.381,29.72,1111122 
DISL,ioos:station:DISL:KATA:1,2013-07-04T14:00:00Z,30.2583,-88.2131,4.368,30.49,1111122 
DISL,ioos:station:DISL:KATA:1,2013-07-04T14:30:00Z,30.2583,-88.2131,4.362,29.19,1111122 
DISL,ioos:station:DISL:KATA:1,2013-07-04T15:00:00Z,30.2583,-88.2131,4.347,29.14,1111122 
DISL,ioos:station:DISL:KATA:1,2013-07-04T15:30:00Z,30.2583,-88.2131,4.327,30.94,1111122 
DISL,ioos:station:DISL:KATA:1,2013-07-04T16:00:00Z,30.2583,-88.2131,4.31,30.35,1111122 
DISL,ioos:station:DISL:KATA:1,2013-07-04T16:30:00Z,30.2583,-88.2131,4.281,30.63,1111122 
DISL,ioos:station:DISL:KATA:1,2013-07-04T17:00:00Z,30.2583,-88.2131,4.248,29.5,1111122 
DISL,ioos:station:DISL:KATA:1,2013-07-04T17:30:00Z,30.2583,-88.2131,4.203,30.22,1111122 
DISL,ioos:station:DISL:KATA:1,2013-07-04T18:00:00Z,30.2583,-88.2131,4.161,30.14,1111122 
DISL,ioos:station:DISL:KATA:1,2013-07-04T18:30:00Z,30.2583,-88.2131,4.126,29.85,1111122 
DISL,ioos:station:DISL:KATA:1,2013-07-04T19:00:00Z,30.2583,-88.2131,4.087,30.12,1111122 
DISL,ioos:station:DISL:KATA:1,2013-07-04T19:30:00Z,30.2583,-88.2131,4.05,30.67,1111122 
DISL,ioos:station:DISL:KATA:1,2013-07-04T20:00:00Z,30.2583,-88.2131,4.025,29.33,1111122 
DISL,ioos:station:DISL:KATA:1,2013-07-04T20:30:00Z,30.2583,-88.2131,3.985,29.38,1111122 
DISL,ioos:station:DISL:KATA:1,2013-07-04T21:00:00Z,30.2583,-88.2131,3.96,30.17,1111122 
DISL,ioos:station:DISL:KATA:1,2013-07-04T21:30:00Z,30.2583,-88.2131,3.939,29.45,1111122 
DISL,ioos:station:DISL:KATA:1,2013-07-04T22:00:00Z,30.2583,-88.2131,3.912,29.77,1111122 
DISL,ioos:station:DISL:KATA:1,2013-07-04T22:30:00Z,30.2583,-88.2131,3.903,30.45,1111122 
DISL,ioos:station:DISL:KATA:1,2013-07-04T23:00:00Z,30.2583,-88.2131,3.908,30.59,1111122 
DISL,ioos:station:DISL:KATA:1,2013-07-04T23:30:00Z,30.2583,-88.2131,3.934,30.53,1111122 
DISL,ioos:station:DISL:KATA:1,2013-07-05T00:00:00Z,30.2583,-88.2131,3.953,30.52,1111122 
DISL,ioos:station:DISL:KATA:1,2013-07-05T00:30:00Z,30.2583,-88.2131,3.98,30.55,1111122 
DISL,ioos:station:DISL:KATA:1,2013-07-05T01:00:00Z,30.2583,-88.2131,3.996,30.36,1111122 
DISL,ioos:station:DISL:KATA:1,2013-07-05T01:30:00Z,30.2583,-88.2131,4.018,29.62,1111122 
DISL,ioos:station:DISL:KATA:1,2013-07-05T02:00:00Z,30.2583,-88.2131,4.035,30.07,1111122 
DISL,ioos:station:DISL:KATA:1,2013-07-05T02:30:00Z,30.2583,-88.2131,4.063,29.9,1111122 
DISL,ioos:station:DISL:KATA:1,2013-07-05T03:00:00Z,30.2583,-88.2131,4.099,29.41,1111122 
DISL,ioos:station:DISL:KATA:1,2013-07-05T03:30:00Z,30.2583,-88.2131,4.132,29.41,1111122 
DISL,ioos:station:DISL:KATA:1,2013-07-05T04:00:00Z,30.2583,-88.2131,4.153,29.48,1111122 
DISL,ioos:station:DISL:KATA:1,2013-07-05T04:30:00Z,30.2583,-88.2131,4.166,29.73,1111122 
DISL,ioos:station:DISL:KATA:1,2013-07-05T05:00:00Z,30.2583,-88.2131,4.176,29.25,1111122 
DISL,ioos:station:DISL:KATA:1,2013-07-05T05:30:00Z,30.2583,-88.2131,4.212,28.88,1111122 
DISL,ioos:station:DISL:KATA:1,2013-07-05T06:00:00Z,30.2583,-88.2131,4.22,29.44,1111122 
DISL,ioos:station:DISL:KATA:1,2013-07-05T06:30:00Z,30.2583,-88.2131,4.246,28.89,1111122 
DISL,ioos:station:DISL:KATA:1,2013-07-05T07:00:00Z,30.2583,-88.2131,4.285,29.02,1111122 
DISL,ioos:station:DISL:KATA:1,2013-07-05T07:30:00Z,30.2583,-88.2131,4.294,28.68,1111122 
DISL,ioos:station:DISL:KATA:1,2013-07-05T08:00:00Z,30.2583,-88.2131,4.298,30.03,1111122 
DISL,ioos:station:DISL:KATA:1,2013-07-05T08:30:00Z,30.2583,-88.2131,4.323,29.68,1111122 
DISL,ioos:station:DISL:KATA:1,2013-07-05T09:00:00Z,30.2583,-88.2131,4.312,29.6,1111122 
DISL,ioos:station:DISL:KATA:1,2013-07-05T09:30:00Z,30.2583,-88.2131,4.303,30.22,1111122 
DISL,ioos:station:DISL:KATA:1,2013-07-05T10:00:00Z,30.2583,-88.2131,4.309,29.69,1111122 
DISL,ioos:station:DISL:KATA:1,2013-07-05T10:30:00Z,30.2583,-88.2131,4.299,30.1,1111122 
DISL,ioos:station:DISL:KATA:1,2013-07-05T11:00:00Z,30.2583,-88.2131,4.314,30.26,1111122 
DISL,ioos:station:DISL:KATA:1,2013-07-05T11:30:00Z,30.2583,-88.2131,4.331,30.29,1111122 
DISL,ioos:station:DISL:KATA:1,2013-07-05T12:00:00Z,30.2583,-88.2131,4.333,30.69,1111122 
DISL,ioos:station:DISL:KATA:1,2013-07-05T12:30:00Z,30.2583,-88.2131,4.361,30.7,1111122 
DISL,ioos:station:DISL:KATA:1,2013-07-05T13:00:00Z,30.2583,-88.2131,4.38,30.76,1111122 
DISL,ioos:station:DISL:KATA:1,2013-07-05T13:30:00Z,30.2583,-88.2131,4.414,30.78,1111122 
DISL,ioos:station:DISL:KATA:1,2013-07-05T14:00:00Z,30.2583,-88.2131,4.392,30.79,1111122 
DISL,ioos:station:DISL:KATA:1,2013-07-05T14:30:00Z,30.2583,-88.2131,4.335,30.69,1111122 
DISL,ioos:station:DISL:KATA:1,2013-07-05T15:00:00Z,30.2583,-88.2131,4.31,30.61,1111122 
DISL,ioos:station:DISL:KATA:1,2013-07-05T15:30:00Z,30.2583,-88.2131,4.323,30.65,1111122 
DISL,ioos:station:DISL:KATA:1,2013-07-05T16:00:00Z,30.2583,-88.2131,4.313,30.68,1111122 
DISL,ioos:station:DISL:KATA:1,2013-07-05T16:30:00Z,30.2583,-88.2131,4.257,30.67,1111122 
DISL,ioos:station:DISL:KATA:1,2013-07-05T17:00:00Z,30.2583,-88.2131,4.26,30.63,1111122 
DISL,ioos:station:DISL:KATA:1,2013-07-05T17:30:00Z,30.2583,-88.2131,4.24,30.64,1111122 
DISL,ioos:station:DISL:KATA:1,2013-07-05T18:00:00Z,30.2583,-88.2131,4.192,30.65,1111122 
DISL,ioos:station:DISL:KATA:1,2013-07-05T18:30:00Z,30.2583,-88.2131,4.158,30.4,1111122 
DISL,ioos:station:DISL:KATA:1,2013-07-05T19:00:00Z,30.2583,-88.2131,4.134,30.55,1111122 
DISL,ioos:station:DISL:KATA:1,2013-07-05T19:30:00Z,30.2583,-88.2131,4.096,30.42,1111122 
DISL,ioos:station:DISL:KATA:1,2013-07-05T20:00:00Z,30.2583,-88.2131,4.006,30.43,1111122 
DISL,ioos:station:DISL:KATA:1,2013-07-05T20:30:00Z,30.2583,-88.2131,3.965,30.4,1111122 
DISL,ioos:station:DISL:KATA:1,2013-07-05T21:00:00Z,30.2583,-88.2131,3.892,30.36,1111122 
DISL,ioos:station:DISL:KATA:1,2013-07-05T21:30:00Z,30.2583,-88.2131,3.858,30.24,1111122 
DISL,ioos:station:DISL:KATA:1,2013-07-05T22:00:00Z,30.2583,-88.2131,3.824,30.16,1111122 
DISL,ioos:station:DISL:KATA:1,2013-07-05T22:30:00Z,30.2583,-88.2131,3.79,30.09,1111122 
DISL,ioos:station:DISL:KATA:1,2013-07-05T23:00:00Z,30.2583,-88.2131,3.737,30.04,1111122 
DISL,ioos:station:DISL:KATA:1,2013-07-05T23:30:00Z,30.2583,-88.2131,3.719,29.89,1111122 
DISL,ioos:station:DISL:KATA:1,2013-07-06T00:00:00Z,30.2583,-88.2131,3.719,29.69,1111122 
DISL,ioos:station:DISL:KATA:1,2013-07-06T00:30:00Z,30.2583,-88.2131,3.731,29.76,1111122 
DISL,ioos:station:DISL:KATA:1,2013-07-06T01:00:00Z,30.2583,-88.2131,3.742,29.53,1111122 
DISL,ioos:station:DISL:KATA:1,2013-07-06T01:30:00Z,30.2583,-88.2131,3.825,28.82,1111122 
DISL,ioos:station:DISL:KATA:1,2013-07-06T02:00:00Z,30.2583,-88.2131,3.882,28.52,1111122 
DISL,ioos:station:DISL:KATA:1,2013-07-06T02:30:00Z,30.2583,-88.2131,3.936,29.46,1111122 
DISL,ioos:station:DISL:KATA:1,2013-07-06T03:00:00Z,30.2583,-88.2131,3.968,29.78,1111122 
DISL,ioos:station:DISL:KATA:1,2013-07-06T03:30:00Z,30.2583,-88.2131,3.953,28.86,1111122 
DISL,ioos:station:DISL:KATA:1,2013-07-06T04:00:00Z,30.2583,-88.2131,3.951,29.47,1111122 
DISL,ioos:station:DISL:KATA:1,2013-07-06T04:30:00Z,30.2583,-88.2131,3.975,27.86,1111122 
DISL,ioos:station:DISL:KATA:1,2013-07-06T05:00:00Z,30.2583,-88.2131,4.047,28.45,1111122 
DISL,ioos:station:DISL:KATA:1,2013-07-06T05:30:00Z,30.2583,-88.2131,4.131,28.29,1111122 
DISL,ioos:station:DISL:KATA:1,2013-07-06T06:00:00Z,30.2583,-88.2131,4.195,28.93,1111122 
DISL,ioos:station:DISL:KATA:1,2013-07-06T06:30:00Z,30.2583,-88.2131,4.194,28.75,1111122 
DISL,ioos:station:DISL:KATA:1,2013-07-06T07:00:00Z,30.2583,-88.2131,4.184,28.89,1111122 
DISL,ioos:station:DISL:KATA:1,2013-07-06T07:30:00Z,30.2583,-88.2131,4.193,28.24,1111122 
DISL,ioos:station:DISL:KATA:1,2013-07-06T08:00:00Z,30.2583,-88.2131,4.187,28.65,1111122 
DISL,ioos:station:DISL:KATA:1,2013-07-06T08:30:00Z,30.2583,-88.2131,4.161,29.05,1111122 
DISL,ioos:station:DISL:KATA:1,2013-07-06T09:00:00Z,30.2583,-88.2131,4.159,28.89,1111122 
DISL,ioos:station:DISL:KATA:1,2013-07-06T09:30:00Z,30.2583,-88.2131,4.163,27.63,1111122 
DISL,ioos:station:DISL:KATA:1,2013-07-06T10:00:00Z,30.2583,-88.2131,4.193,28.62,1111122 
DISL,ioos:station:DISL:KATA:1,2013-07-06T10:30:00Z,30.2583,-88.2131,4.234,28.81,1111122 
DISL,ioos:station:DISL:KATA:1,2013-07-06T11:00:00Z,30.2583,-88.2131,4.301,28.89,1111122 
DISL,ioos:station:DISL:KATA:1,2013-07-06T11:30:00Z,30.2583,-88.2131,4.368,29.66,1111122 
DISL,ioos:station:DISL:KATA:1,2013-07-06T12:00:00Z,30.2583,-88.2131,4.408,29.88,1111122 
DISL,ioos:station:DISL:KATA:1,2013-07-06T12:30:00Z,30.2583,-88.2131,4.444,29.8,1111122 
DISL,ioos:station:DISL:KATA:1,2013-07-06T13:00:00Z,30.2583,-88.2131,4.429,28.87,1111122 
DISL,ioos:station:DISL:KATA:1,2013-07-06T13:30:00Z,30.2583,-88.2131,4.425,29.19,1111122 
DISL,ioos:station:DISL:KATA:1,2013-07-06T14:00:00Z,30.2583,-88.2131,4.362,28.69,1111122 